Tracking 30703 objects as of 13-Jun-2025
HD Live streaming from Space Station
objects crossing your sky now

CZ-4C DEB

Track CZ-4C DEB now!
10-day predictions


NORAD ID: 44598
Int'l Code: 2013-065H
Perigee: 997.8 km
Apogee: 1,208.0 km
Inclination: 100.4 °
Period: 107.2 minutes
Semi major axis: 7473 km
RCS: Unknown
Launch date: November 20, 2013
Source: People's Republic of China (PRC)
Launch site: Taiyaun Space Center, China (TSC)

Note: This is SATELLITE DEBRIS
Your satellite tracking list
Your tracking list is empty




NASA's NSSDC Master Catalog

Two Line Element Set (TLE):
1 44598U 13065H   25155.07196182 -.00000008  00000-0  64253-4 0  9990
2 44598 100.3810  82.0345 0140615  31.5012 329.4442 13.43637703483040
Source of the keplerian elements: AFSPC